Location: ??
(35.4824°N, 139.4679°E)
Time: 20:46:43
(UTC+00:00)

N. Korean satellite - Visible Passes

Search period start: 18 January 2021 00:00
Search period end: 28 January 2021 00:00
Orbit: 453 x 502 km, 97.2° (Epoch: 17 January)

Date Brightness Start Highest point End Pass type
(mag) Time Alt. Az. Time Alt. Az. Time Alt. Az.
18 Jan 6.8 20:29:44 10° N 20:33:01 40° WNW 20:36:16 10° SW visible
19 Jan 10.5 08:37:26 10° WSW 08:38:06 10° W 08:38:46 10° W visible
19 Jan 6.5 20:03:02 10° NNE 20:06:31 77° E 20:09:56 10° S visible
20 Jan 8.4 19:36:49 10° NE 19:39:55 29° E 19:42:57 10° SSE visible
20 Jan 8.3 21:11:30 10° NW 21:12:54 12° WNW 21:14:16 10° W visible
21 Jan 9.7 19:11:31 10° ENE 19:13:12 13° E 19:14:52 10° ESE visible
21 Jan 7.4 20:43:36 10° NNW 20:46:32 26° WNW 20:49:26 10° SW visible
22 Jan 6.3 20:16:39 10° N 20:20:04 64° WNW 20:23:27 10° SSW visible
23 Jan 9.9 08:22:50 10° SW 08:25:03 15° W 08:27:16 10° WNW visible
23 Jan 7.4 19:50:09 10° NNE 19:53:31 47° E 19:56:48 10° S visible
24 Jan 9.1 19:24:15 10° NE 19:26:50 20° E 19:29:24 10° SE visible
24 Jan 7.9 20:57:40 10° NNW 21:00:00 17° WNW 21:02:18 10° WSW visible
25 Jan 6.8 20:30:20 10° N 20:33:34 39° WNW 20:36:46 10° SW visible
26 Jan 6.4 20:03:36 10° NNE 20:07:03 79° E 20:10:26 10° S visible
27 Jan 8.3 19:37:21 10° NE 19:40:25 30° E 19:43:27 10° SSE visible
27 Jan 8.4 21:12:12 10° NW 21:13:24 11° WNW 21:14:35 10° W visible
